Location: Nürtingen
(48.6244°N, 9.3469°E)
Time: 02:49:24
(UTC+01:00)

ISS - Visible Passes

Search period start: 26 March 2019 00:00
Search period end: 05 April 2019 01:00
Orbit: 408 x 411 km, 51.6° (Epoch: 26 March)

Date Brightness Start Highest point End Pass type
(mag) Time Alt. Az. Time Alt. Az. Time Alt. Az.
26 Mar -3.8 19:26:24 10° WSW 19:29:42 76° SSE 19:33:00 10° ENE visible
26 Mar -2.8 21:03:12 10° W 21:05:59 45° NNW 21:05:59 45° NNW visible
27 Mar -3.2 20:12:25 10° W 20:15:40 55° N 20:17:28 23° ENE visible
27 Mar -0.9 21:49:18 10° WNW 21:50:14 17° WNW 21:50:14 17° WNW visible
28 Mar -3.5 19:21:38 10° W 19:24:55 67° NNW 19:28:14 10° ENE visible
28 Mar -3.0 20:58:33 10° WNW 21:01:37 48° N 21:01:37 48° N visible
29 Mar -3.0 20:07:46 10° WNW 20:10:59 47° N 20:12:58 20° ENE visible
29 Mar -1.2 21:44:30 10° WNW 21:45:43 21° WNW 21:45:43 21° WNW visible
30 Mar -3.1 19:16:56 10° W 19:20:11 51° N 19:23:25 10° ENE visible
30 Mar -3.5 20:53:46 10° WNW 20:57:01 59° N 20:57:01 59° N visible
31 Mar -3.2 21:03:00 10° WNW 21:06:16 51° N 21:08:19 20° ENE visible
31 Mar -1.5 22:39:39 10° WNW 22:41:04 23° WNW 22:41:04 23° WNW visible
01 Apr -4.0 21:48:54 10° WNW 21:52:13 89° NNE 21:52:20 83° ESE visible
02 Apr -3.7 20:58:08 10° WNW 21:01:26 67° NNE 21:03:36 20° E visible
02 Apr -1.5 22:34:53 10° W 22:36:21 21° W 22:36:21 21° W visible
03 Apr -3.4 21:44:00 10° WNW 21:47:13 50° SSW 21:47:39 46° S visible
04 Apr -3.8 20:53:10 10° WNW 20:56:29 76° SSW 20:58:57 17° ESE visible
04 Apr -1.2 22:30:31 10° W 22:31:42 15° WSW 22:31:42 15° WSW visible
